Simultaneous Nadir Overpasses (SNOs) Predictions

Prediction of SNOs between FY3D and TERRA Satellite Orbit:

Table of predicted SNOs for the next 14.0 days since TLE Epoch: 8/14/2021
Index Date (FY3D) Time (FY3D) Lat,Lon (FY3D) SZA (FY3D ) Date (TERRA) Time (TERRA) Lat,Lon (TERRA) SZA (TERRA ) Distance(km) Time Diff (sec)
1 08/15/2021 13:34:30 70.10, -23.87 56.13 08/15/2021 13:35:29 70.07, -23.95 56.11 3.71 59
2 08/15/2021 14:25:12 -70.01, 143.58 123.95 08/15/2021 14:24:58 -70.01, 143.60 123.95 0.79 14
3 08/15/2021 15:15:44 69.31, -48.07 55.35 08/15/2021 15:14:35 69.36, -49.65 55.42 62.30 69
4 08/18/2021 05:50:49 70.13, 92.01 57.02 08/18/2021 05:51:54 70.14, 92.02 57.02 0.50 65
5 08/18/2021 06:41:31 -70.05,-100.54 123.06 08/18/2021 06:41:24 -70.02,-100.51 123.08 2.94 7
6 08/18/2021 07:32:07 69.56, 67.51 56.46 08/18/2021 07:30:56 69.64, 66.61 56.55 36.20 71
7 08/20/2021 22:07:08 70.17,-152.11 57.94 08/20/2021 22:08:20 70.14,-152.09 57.90 3.67 72
8 08/20/2021 22:57:49 -70.03, 15.43 122.19 08/20/2021 22:57:50 -70.03, 15.38 122.20 1.75 1
9 08/20/2021 23:48:31 69.86,-177.00 57.65 08/20/2021 23:47:18 69.87,-177.20 57.65 7.90 73
10 08/23/2021 14:23:30 70.42, -36.56 59.10 08/23/2021 14:24:42 70.31, -35.98 58.97 25.44 72
11 08/23/2021 15:14:07 -70.08, 131.31 121.25 08/23/2021 15:14:14 -70.09, 131.34 121.24 1.93 7
12 08/23/2021 16:04:50 69.95, -61.19 58.64 08/23/2021 16:03:41 69.97, -61.17 58.66 2.45 69
13 08/26/2021 06:39:53 70.68, 78.98 60.27 08/26/2021 06:41:03 70.57, 80.30 60.16 49.99 70
14 08/26/2021 07:30:25 -70.07,-112.73 120.34 08/26/2021 07:30:40 -70.09,-112.78 120.32 2.88 15
15 08/26/2021 08:21:09 70.00, 54.69 59.61 08/26/2021 08:20:07 69.97, 54.70 59.58 3.08 62



Historial Predications of SNOs between FY3D and TERRA
